Location: Crescent
(42.8242°N, 73.7329°W)
Time: 14:15:04
(UTC+00:00)

Transit 2A - Pass Details

Date: 13 November 2024
Orbit: 592 x 956 km, 66.7° (Epoch: 02 December)

Event Time Altitude Azimuth Distance (km) Brightness Sun altitude
Exits shadow 10:24:26 19° 261° (W) 2,106 7.7 -14.9°
Maximum altitude 10:28:08 34° 313° (NW) 1,533 7.1 -14.2°
Drops below altitude 10° 10:33:45 10° 16° (NNE) 2,646 8.8 -13.2°
Sets 10:36:31 0° 26° (NNE) 3,556 9.6 -12.7°
